User: anonymous   Login
Location: Kott?ru
(16.6209°N, 80.6208°E)
Time: 06:30:56
(UTC+00:00)
Language:

SJ-12 - Orbit

View from above orbital plane
View from above orbital plane
View from above satellite
View from above satellite

Ground track
Ground track

The orbit data is extracted from the following two-line orbital elements,

1 36596U 10027A   20339.03816513  .00000446  00000-0  43937-4 0  9997
2 36596  97.6675 324.5979 0013058 107.5518 252.7101 14.96825580571205
Epoch (UTC): 04 December 2020 00:54:57
Eccentricity: 0.0013058
inclination: 97.6675°
perigee height: 567 km
apogee height: 586 km
right ascension of ascending node: 324.5979°
argument of perigee: 107.5518°
revolutions per day: 14.96825580
mean anomaly at epoch: 252.7101°
orbit number at epoch: 57120

The dashed part of the orbit path shows where the satellite is in the earth's shadow,  

DLR